Regional Weather Roundup
Issued by NWS

Home | Current Version | Previous Version | Text Only | Print | Product List | Glossary On
Versions: 1 2 3 4 5 6 7 8 9 10 11 12 13 14 15 16 17 18 19 20 21 22 23 24 25 26 27 28 29 30 31 32 33 34 35 36 37 38 39 40 41 42 43 44 45 46 47 48 49 50
000
ASUS43 KFSD 271910
RWRSD

WEATHER ROUNDUP FOR SOUTH DAKOTA
NATIONAL WEATHER SERVICE SIOUX FALLS SD
100 PM CST THU NOV 27 2014

NOTE: "FAIR" INDICATES FEW OR NO CLOUDS BELOW 12,000 FEET WITH NO
SIGNIFICANT WEATHER AND/OR OBSTRUCTIONS TO VISIBILITY.


SDZ001>005-009-010-012>017-272000-
NORTHWEST AND NORTH CENTRAL SOUTH DAKOTA

CITY           SKY/WX    TMP DP  RH WIND       PRES   REMARKS
BUFFALO          N/A     25  19  78 S15       29.87F WCI  13
FAITH            N/A     19  13  77 S18       30.01F WCI   4
MOBRIDGE       CLOUDY    15   7  70 SE17      30.11F WCI  -1
$$

SDZ012>016-024>037-041>051-057-063-072>074-272000-
SOUTHWEST AND SOUTH CENTRAL SOUTH DAKOTA

CITY           SKY/WX    TMP DP  RH WIND       PRES   REMARKS
RAPID CTY ARPT PTSUNNY   30  25  81 S12       29.98F WCI  20
PIERRE         CLOUDY    20  11  68 SE18      30.14F WCI   5
CUSTER         PTSUNNY   47  24  40 W8        29.98F
ELLSWORTH AFB  PTSUNNY   29  25  84 S13       29.96  WCI  19
PHILIP         CLOUDY    28  18  66 SE13      30.06F WCI  17
PINE RIDGE     PTSUNNY   46  29  51 SW8       30.00F
SPEARFISH      FAIR      32  32 100 CALM      29.92F
WINNER         FAIR      27  14  58 SE20G25   30.15F WCI  13
$$

SDZ004>011-016>023-039-040-272000-
NORTHEAST SOUTH DAKOTA

CITY           SKY/WX    TMP DP  RH WIND       PRES   REMARKS
ABERDEEN       PTSUNNY    6  -5  60 SE10      30.33F WCI  -9
WATERTOWN      SUNNY      5  -5  63 S14       30.31F WCI -12
SISSETON         N/A      3  -5  69 S12       30.39F WCI -13
$$

SDZ017-020-022-023-036>040-048>070-272000-
SOUTHEAST SOUTH DAKOTA

CITY           SKY/WX    TMP DP  RH WIND       PRES   REMARKS
SIOUX FALLS    CLOUDY     8  -4  58 SE8       30.39F WCI  -4
HURON          CLOUDY    11  -2  56 SE15G22   30.30F WCI  -5
CHAMBERLAIN    MOSUNNY   19  10  66 SE17G23   30.21F WCI   4
MITCHELL       CLOUDY    13   3  64 SE15      30.34F WCI  -3
YANKTON        CLOUDY    16   3  57 E13       30.37F WCI   2
$$

ABBREVIATIONS USED IN REMARKS
   TC - TEMPERATURE IN CELSIUS
  WCI - WIND CHILL INDEX
   HX - HEAT INDEX
  VSB - VISIBILITY



USA.gov is the U.S. government's official web portal to all federal, state and local government web resources and services.